This demonstration page uses our WeatherBlox Daily Observations layout. Learn more.

Left ArrowRight Arrow

36.17497, -115.13722

Hourly Observations for November 16, 2021

Temp ( °F °C ) Dew Point ( °F °C ) Humidity (%) Winds ( mph kmh ) Pressure ( in mb ) Visibility ( mi km ) Precip ( " mm )
12:53 am 00:53 Clear 57 13.9 31 -0.6 37 37 NW 3 6 30.01 1016 10 16 0.00 0.00
1:53 am 01:53 Clear 58 14.4 30 -1.1 35 35 WNW 5 7 29.98 1015 10 16 0.00 0.00
2:53 am 02:53 Clear 58 14.4 28 -2.2 32 32 NNW 9 15 29.98 1015 10 16 0.00 0.00
3:53 am 03:53 Clear 62 16.7 27 -2.8 26 26 NNW 8 13 29.97 1015 10 16 0.00 0.00
4:53 am 04:53 Clear 60 15.6 27 -2.8 28 28 NNW 9 15 29.98 1015 10 16 0.00 0.00
5:53 am 05:53 Clear 61 16.1 26 -3.3 26 26 NNW 10 17 29.98 1015 10 16 0.00 0.00
6:53 am 06:53 Sunny 58 14.4 28 -2.2 32 32 NW 5 7 30.01 1016 10 16 0.00 0.00
7:53 am 07:53 Sunny 60 15.6 28 -2.2 30 30 NW 7 11 30.02 1017 10 16 0.00 0.00
8:53 am 08:53 Sunny 63 17.2 29 -1.7 28 28 Calm 30.02 1017 10 16 0.00 0.00
9:53 am 09:53 Sunny 67 19.4 30 -1.1 25 25 N 3 6 30.02 1017 10 16 0.00 0.00
10:53 am 10:53 Sunny 69 20.6 30 -1.1 23 23 SE 8 13 29.99 1016 10 16 0.00 0.00
11:53 am 11:53 Sunny 72 22.2 29 -1.7 20 20 SSE 6 9 29.95 1014 10 16 0.00 0.00
12:53 pm 12:53 Sunny 74 23.3 28 -2.2 18 18 ENE 9 15 29.92 1013 10 16 0.00 0.00
1:53 pm 13:53 Sunny 76 24.4 26 -3.3 16 16 E 3 6 29.91 1013 10 16 0.00 0.00
2:53 pm 14:53 Sunny 76 24.4 27 -2.8 16 16 E 6 9 29.90 1013 10 16 0.00 0.00
3:53 pm 15:53 Sunny 75 23.9 26 -3.3 16 16 Calm 29.89 1012 10 16 0.00 0.00
4:53 pm 16:53 Clear 73 22.8 27 -2.8 18 18 NNE 3 6 29.90 1013 10 16 0.00 0.00
5:53 pm 17:53 Clear 69 20.6 27 -2.8 21 21 Calm 29.91 1013 10 16 0.00 0.00
6:53 pm 18:53 Clear 64 17.8 29 -1.7 27 27 W 3 6 29.93 1014 10 16 0.00 0.00
7:53 pm 19:53 Clear 62 16.7 31 -0.6 31 31 WNW 7 11 29.94 1014 10 16 0.00 0.00
8:53 pm 20:53 Clear 60 15.6 29 -1.7 31 31 WNW 7 11 29.96 1015 10 16 0.00 0.00
9:53 pm 21:53 Clear 59 15 28 -2.2 31 31 W 6 9 29.97 1015 10 16 0.00 0.00
10:53 pm 22:53 Clear 57 13.9 29 -1.7 34 34 Calm 29.97 1015 10 16 0.00 0.00
11:53 pm 23:53 Clear 59 15 25 -3.9 27 27 NW 7 11 29.97 1015 10 16 0.00 0.00

Powered by AerisWeather